Location: Peebles
(55.6412°N, 3.1714°W)
Time: 13:56:22
(UTC+00:00)

RS-15 - Pass Details

Date: 30 November 2023
Orbit: 1893 x 2151 km, 64.8° (Epoch: 02 March)

Event Time Altitude Azimuth Distance (km) Brightness Sun altitude
Exits shadow 05:31:10 21° 311° (NW) 3,624 9.0 -21.9°
Maximum altitude 05:39:45 79° 229° (SW) 2,000 7.9 -20.7°
Drops below altitude 10° 05:50:45 10° 145° (SE) 4,301 10.4 -19.1°
Sets 05:53:57 0° 145° (SE) 5,281 11.0 -18.7°
